KK7ISX Weather Reports


Display with metric or nautical units.
time (UTC)temp
F
wind
direction
speed
MPH
gust
MPH
rain 1hr
in
rain 24hr
in
rain mn
in
humidity
%
barometer
mb
20260505173605 68 219 6.0 7.0 0.00 0.00 0.00 40 1011.0
20260505173102 69 204 0.0 0.0 0.00 0.00 0.00 40 1010.9
20260505172600 68 346 4.0 4.0 0.00 0.00 0.00 39 1011.0
20260505172056 70 273 4.0 6.0 0.00 0.00 0.00 38 1011.0
20260505171551 69 173 0.0 0.0 0.00 0.00 0.00 40 1011.1
20260505171048 68 213 0.0 1.0 0.00 0.00 0.00 39 1011.0
20260505170544 68 195 1.0 1.0 0.00 0.00 0.00 40 1011.0
20260505170041 68 183 1.0 2.0 0.00 0.00 0.00 40 1010.9
20260505165536 68 264 5.0 6.0 0.00 0.00 0.00 40 1010.7
20260505165032 68 252 2.0 3.0 0.00 0.00 0.00 40 1010.8
20260505164528 66 266 1.0 1.0 0.00 0.00 0.00 40 1010.8
20260505164026 65 259 2.0 2.0 0.00 0.00 0.00 41 1010.7
20260505163525 67 220 5.0 6.0 0.00 0.00 0.00 42 1010.8
20260505163021 65 215 2.0 2.0 0.00 0.00 0.00 42 1011.0
20260505162515 66 227 7.0 8.0 0.00 0.00 0.00 42 1010.6
20260505162011 65 197 4.0 6.0 0.00 0.00 0.00 42 1011.0
20260505161508 66 142 4.0 4.0 0.00 0.00 0.00 41 1010.8
20260505161006 65 206 6.0 7.0 0.00 0.00 0.00 42 1010.8
20260505160503 65 183 3.0 6.0 0.00 0.00 0.00 42 1010.6
20260505152940 63 219 4.0 4.0 0.00 0.00 0.00 50 1010.7
20260505152438 62 211 4.0 4.0 0.00 0.00 0.00 52 1010.5
20260505151937 63 163 2.0 2.0 0.00 0.00 0.00 52 1010.6
20260505151433 62 156 2.0 2.0 0.00 0.00 0.00 52 1010.6
20260505150931 62 198 4.0 4.0 0.00 0.00 0.00 52 1010.5
20260505150428 62 198 3.0 3.0 0.00 0.00 0.00 51 1010.6
20260505140358 52 194 0.0 0.0 0.00 0.00 0.00 70 1009.9
20260505124811 50 190 0.0 1.0 0.00 0.00 0.00 70 1008.3
20260505124308 50 193 0.0 0.0 0.00 0.00 0.00 71 1008.2
20260505123804 51 187 0.0 0.0 0.00 0.00 0.00 70 1008.3
20260505123300 51 189 0.0 1.0 0.00 0.00 0.00 70 1008.3
20260505122757 51 180 1.0 1.0 0.00 0.00 0.00 69 1008.0
20260505122255 51 200 0.0 0.0 0.00 0.00 0.00 69 1008.1
20260505121751 51 204 0.0 0.0 0.00 0.00 0.00 69 1007.9
20260505121248 51 187 2.0 2.0 0.00 0.00 0.00 68 1008.0
20260505120744 51 199 1.0 2.0 0.00 0.00 0.00 68 1007.8
20260505120240 51 181 1.0 1.0 0.00 0.00 0.00 67 1007.7
20260505115739 51 148 2.0 2.0 0.00 0.00 0.00 67 1007.7
20260505115237 52 189 1.0 1.0 0.00 0.00 0.00 68 1007.8
20260505114734 52 169 1.0 1.0 0.00 0.00 0.00 67 1007.4
20260505114230 52 196 0.0 0.0 0.00 0.00 0.00 67 1007.6
20260505113727 52 201 1.0 1.0 0.00 0.00 0.00 66 1007.2
20260505113223 52 189 2.0 2.0 0.00 0.00 0.00 66 1007.3
20260505112719 53 196 1.0 1.0 0.00 0.00 0.00 65 1007.0
20260505112218 52 207 2.0 2.0 0.00 0.00 0.00 65 1007.1
20260505111717 53 182 0.0 1.0 0.00 0.00 0.00 65 1007.3
20260505111213 53 195 1.0 1.0 0.00 0.00 0.00 65 1007.2
20260505110709 52 219 4.0 4.0 0.00 0.00 0.00 65 1006.8
20260505110207 52 201 3.0 3.0 0.00 0.00 0.00 65 1006.9
20260505102142 56 193 0.0 1.0 0.00 0.00 0.00 59 1006.4
20260505101641 58 205 0.0 0.0 0.00 0.00 0.00 55 1006.4
20260505101137 58 276 2.0 3.0 0.00 0.00 0.00 53 1006.0
20260505100633 58 218 1.0 1.0 0.00 0.00 0.00 54 1005.9
20260505100130 58 243 0.0 1.0 0.00 0.00 0.00 54 1005.9
20260505095626 58 274 3.0 3.0 0.00 0.00 0.00 53 1005.9
20260505095123 58 282 3.0 3.0 0.00 0.00 0.00 53 1005.9
20260505094620 59 275 3.0 3.0 0.00 0.00 0.00 52 1005.7
20260505094116 59 272 2.0 3.0 0.00 0.00 0.00 52 1005.8
20260505093612 59 293 5.0 6.0 0.00 0.00 0.00 53 1005.6
20260505093110 59 306 8.0 9.0 0.00 0.00 0.00 51 1005.8
20260505092607 59 299 3.0 3.0 0.00 0.00 0.00 51 1005.7
20260505092106 59 239 1.0 1.0 0.00 0.00 0.00 51 1005.5
20260505091602 59 225 2.0 2.0 0.00 0.00 0.00 51 1005.6
20260505091100 60 246 1.0 2.0 0.00 0.00 0.00 51 1005.5
20260505090558 60 294 4.0 4.0 0.00 0.00 0.00 51 1005.3
20260505090055 60 298 6.0 6.0 0.00 0.00 0.00 51 1005.1
20260505085553 60 291 6.0 7.0 0.00 0.00 0.00 50 1005.1
20260505085051 60 301 5.0 6.0 0.00 0.00 0.00 50 1005.1
20260505084549 60 294 4.0 4.0 0.00 0.00 0.00 51 1005.2
20260505084047 60 280 6.0 7.0 0.00 0.00 0.00 50 1005.1
20260505083543 60 288 5.0 7.0 0.00 0.00 0.00 50 1005.2
20260505083040 61 299 4.0 4.0 0.00 0.00 0.00 50 1005.0
20260505082536 60 293 5.0 6.0 0.00 0.00 0.00 50 1004.8
20260505082033 60 264 7.0 8.0 0.00 0.00 0.00 51 1005.0
20260505081529 60 313 6.0 6.0 0.00 0.00 0.00 51 1004.7
20260505081027 60 309 5.0 6.0 0.00 0.00 0.00 51 1005.0
20260505080522 60 307 5.0 6.0 0.00 0.00 0.00 51 1004.8
20260505080020 60 291 5.0 6.0 0.00 0.00 0.00 51 1004.8
20260505075515 60 268 5.0 6.0 0.00 0.00 0.00 51 1004.7
20260505075013 60 292 5.0 6.0 0.00 0.00 0.00 51 1004.8
20260505074510 61 275 5.0 6.0 0.00 0.00 0.00 50 1004.7
20260505074007 62 303 7.0 8.0 0.00 0.00 0.00 49 1004.7
20260505073504 62 304 8.0 10.0 0.00 0.00 0.00 48 1004.8
20260505073002 62 325 6.0 7.0 0.00 0.00 0.00 48 1004.7
20260505072457 62 316 7.0 8.0 0.00 0.00 0.00 48 1004.6
20260505071954 62 312 5.0 6.0 0.00 0.00 0.00 48 1004.8
20260505071450 62 301 6.0 7.0 0.00 0.00 0.00 48 1004.7
20260505070948 64 308 6.0 7.0 0.00 0.00 0.00 47 1004.7
20260505070444 64 308 6.0 7.0 0.00 0.00 0.00 45 1004.6
20260505065940 64 304 4.0 6.0 0.00 0.00 0.00 45 1004.6
20260505065437 64 315 6.0 7.0 0.00 0.00 0.00 44 1004.5
20260505064933 64 300 7.0 9.0 0.00 0.00 0.00 44 1004.5
20260505064431 64 296 5.0 6.0 0.00 0.00 0.00 44 1004.5
20260505063929 64 317 6.0 8.0 0.00 0.00 0.00 44 1004.4
20260505063425 64 311 5.0 6.0 0.00 0.00 0.00 45 1004.5
20260505062922 65 302 5.0 6.0 0.00 0.00 0.00 44 1004.4
20260505062419 66 307 6.0 6.0 0.00 0.00 0.00 43 1004.4
20260505061915 67 314 6.0 7.0 0.00 0.00 0.00 41 1004.5
20260505061414 67 319 9.0 10.0 0.00 0.00 0.00 41 1004.1
20260505060911 66 271 4.0 6.0 0.00 0.00 0.00 42 1004.6
20260505060408 67 325 5.0 6.0 0.00 0.00 0.00 41 1004.3
20260505055904 68 314 4.0 4.0 0.00 0.00 0.00 41 1004.4
20260505055400 67 297 4.0 4.0 0.00 0.00 0.00 40 1004.3
20260505054857 67 320 4.0 6.0 0.00 0.00 0.00 41 1004.3
20260505054354 66 306 5.0 6.0 0.00 0.00 0.00 42 1004.5
20260505053853 66 298 4.0 4.0 0.00 0.00 0.00 43 1004.4
20260505053349 66 297 4.0 4.0 0.00 0.00 0.00 42 1004.2
20260505052846 67 323 4.0 4.0 0.00 0.00 0.00 42 1004.2
20260505052343 68 299 7.0 8.0 0.00 0.00 0.00 40 1004.2
20260505051840 67 319 8.0 8.0 0.00 0.00 0.00 40 1003.9
20260505051337 66 303 5.0 6.0 0.00 0.00 0.00 42 1004.3
20260505050835 66 299 4.0 4.0 0.00 0.00 0.00 46 1004.2
20260505050334 66 289 3.0 3.0 0.00 0.00 0.00 47 1004.3
20260505041301 70 287 6.0 7.0 0.00 0.00 0.00 41 1004.2
20260505040758 70 305 6.0 7.0 0.00 0.00 0.00 40 1004.1
20260505040255 71 298 4.0 4.0 0.00 0.00 0.00 39 1004.1
20260505035752 71 302 4.0 4.0 0.00 0.00 0.00 38 1004.1
20260505035248 72 340 3.0 4.0 0.00 0.00 0.00 37 1003.9
20260505034745 72 317 2.0 3.0 0.00 0.00 0.00 37 1004.1
20260505034242 73 318 3.0 4.0 0.00 0.00 0.00 37 1003.9
20260505033738 73 277 2.0 3.0 0.00 0.00 0.00 37 1003.8
20260505033236 73 336 6.0 6.0 0.00 0.00 0.00 36 1003.7
20260505032734 73 332 3.0 3.0 0.00 0.00 0.00 37 1003.8
20260505032230 74 342 2.0 3.0 0.00 0.00 0.00 36 1003.7
20260505031727 74 339 5.0 7.0 0.00 0.00 0.00 36 1003.5
20260505031223 74 243 1.0 2.0 0.00 0.00 0.00 36 1003.7
20260505030721 75 331 3.0 3.0 0.00 0.00 0.00 36 1003.4
20260505030217 75 39 5.0 7.0 0.00 0.00 0.00 35 1003.5
20260505025713 75 64 2.0 3.0 0.00 0.00 0.00 35 1003.4
20260505025211 76 349 7.0 10.0 0.00 0.00 0.00 35 1003.4
20260505024709 76 25 6.0 7.0 0.00 0.00 0.00 34 1003.3
20260505024205 77 314 5.0 7.0 0.00 0.00 0.00 35 1003.4
20260505023703 77 328 4.0 4.0 0.00 0.00 0.00 34 1003.2
20260505023155 77 346 6.0 7.0 0.00 0.00 0.00 34 1003.1
20260505022652 78 331 4.0 4.0 0.00 0.00 0.00 33 1003.1
20260505022149 78 340 5.0 7.0 0.00 0.00 0.00 33 1003.0
20260505021646 78 15 3.0 3.0 0.00 0.00 0.00 33 1003.1
20260505021142 78 332 7.0 7.0 0.00 0.00 0.00 32 1003.1
20260505020638 79 357 8.0 9.0 0.00 0.00 0.00 32 1003.0
20260505020134 79 329 9.0 13.0 0.00 0.00 0.00 32 1003.2
20260505015632 79 305 8.0 9.0 0.00 0.00 0.00 31 1003.1
20260505015128 79 352 8.0 9.0 0.00 0.00 0.00 31 1003.2
20260505014625 79 356 10.0 11.0 0.00 0.00 0.00 31 1003.3
20260505014122 79 311 8.0 9.0 0.00 0.00 0.00 31 1003.3
20260505013620 79 344 10.0 13.0 0.00 0.00 0.00 31 1003.3
20260505013116 80 340 13.0 15.0 0.00 0.00 0.00 30 1003.3
20260505012614 80 352 14.0 16.0 0.00 0.00 0.00 29 1003.3
20260505012105 80 19 13.0 17.0 0.00 0.00 0.00 29 1003.2
20260505011601 81 342 10.0 11.0 0.00 0.00 0.00 28 1003.4
20260505011058 80 332 4.0 4.0 0.00 0.00 0.00 28 1003.4
20260505010553 80 323 13.0 15.0 0.00 0.00 0.00 29 1003.3
20260505010050 81 349 9.0 11.0 0.00 0.00 0.00 29 1003.4
20260505005546 81 290 5.0 7.0 0.00 0.00 0.00 28 1003.5
20260505005044 81 326 6.0 7.0 0.00 0.00 0.00 26 1003.5
20260505004541 81 319 9.0 11.0 0.00 0.00 0.00 25 1003.5
20260505004038 81 339 8.0 10.0 0.00 0.00 0.00 25 1003.8
20260505003535 81 28 5.0 6.0 0.00 0.00 0.00 25 1003.9
20260505003032 82 351 6.0 9.0 0.00 0.00 0.00 25 1003.7
20260505002532 82 275 6.0 7.0 0.00 0.00 0.00 25 1003.7
20260505002032 81 339 9.0 11.0 0.00 0.00 0.00 24 1003.9
20260505001528 82 78 2.0 3.0 0.00 0.00 0.00 25 1004.0
20260505001025 81 347 9.0 11.0 0.00 0.00 0.00 24 1003.8
20260505000523 81 352 7.0 9.0 0.00 0.00 0.00 24 1004.0
20260505000020 81 328 15.0 18.0 0.00 0.00 0.00 25 1003.9
20260504235517 81 319 9.0 10.0 0.00 0.00 0.00 25 1004.1
20260504235013 81 324 5.0 8.0 0.00 0.00 0.00 26 1004.2
20260504234510 81 310 13.0 16.0 0.00 0.00 0.00 25 1004.2
20260504234007 81 30 6.0 7.0 0.00 0.00 0.00 27 1004.2
20260504233502 81 299 7.0 9.0 0.00 0.00 0.00 27 1004.1
20260504233000 81 348 11.0 14.0 0.00 0.00 0.00 27 1004.2
20260504232457 81 335 16.0 18.0 0.00 0.00 0.00 27 1004.2
20260504231954 81 317 8.0 10.0 0.00 0.00 0.00 28 1004.2
20260504231450 81 5 7.0 10.0 0.00 0.00 0.00 29 1004.4
20260504230947 80 286 5.0 7.0 0.00 0.00 0.00 28 1004.4
20260504230443 81 346 14.0 16.0 0.00 0.00 0.00 28 1004.5
20260504225943 80 325 10.0 14.0 0.00 0.00 0.00 28 1004.5
20260504225439 80 307 8.0 9.0 0.00 0.00 0.00 31 1004.5
20260504224936 80 331 9.0 9.0 0.00 0.00 0.00 30 1004.6
20260504224432 80 1 10.0 13.0 0.00 0.00 0.00 30 1005.0
20260504223930 80 15 10.0 11.0 0.00 0.00 0.00 30 1004.8
20260504223425 80 318 5.0 6.0 0.00 0.00 0.00 29 1005.0
20260504222921 79 334 6.0 7.0 0.00 0.00 0.00 29 1005.0
20260504222419 79 328 9.0 11.0 0.00 0.00 0.00 30 1005.2
20260504221917 80 334 11.0 13.0 0.00 0.00 0.00 30 1005.1
20260504221413 80 0 11.0 13.0 0.00 0.00 0.00 29 1005.2
20260504220910 80 357 10.0 13.0 0.00 0.00 0.00 29 1005.0
20260504220407 79 340 9.0 10.0 0.00 0.00 0.00 30 1005.3
20260504215904 79 337 5.0 7.0 0.00 0.00 0.00 29 1005.5
20260504215401 80 331 11.0 14.0 0.00 0.00 0.00 30 1005.5
20260504214857 78 311 4.0 6.0 0.00 0.00 0.00 30 1005.7
20260504214354 78 351 10.0 11.0 0.00 0.00 0.00 32 1005.8
20260504213850 79 5 3.0 3.0 0.00 0.00 0.00 33 1005.7
20260504213346 78 7 5.0 7.0 0.00 0.00 0.00 33 1005.6
20260504212844 78 191 4.0 6.0 0.00 0.00 0.00 32 1005.8
20260504212340 77 345 8.0 9.0 0.00 0.00 0.00 34 1005.9
20260504211838 77 295 7.0 8.0 0.00 0.00 0.00 35 1005.9
20260504211333 77 308 4.0 4.0 0.00 0.00 0.00 34 1006.3
20260504210831 77 345 6.0 8.0 0.00 0.00 0.00 34 1006.3
20260504210328 77 347 4.0 6.0 0.00 0.00 0.00 35 1006.4
20260504205825 77 61 5.0 8.0 0.00 0.00 0.00 35 1006.5
20260504205323 76 335 5.0 7.0 0.00 0.00 0.00 35 1006.6
20260504204821 76 269 5.0 6.0 0.00 0.00 0.00 36 1006.6
20260504204319 77 300 3.0 3.0 0.00 0.00 0.00 35 1006.6
20260504203818 77 348 6.0 8.0 0.00 0.00 0.00 34 1006.7
20260504203315 76 288 4.0 6.0 0.00 0.00 0.00 35 1006.7
20260504202810 76 340 7.0 8.0 0.00 0.00 0.00 36 1006.7
20260504202308 75 330 7.0 8.0 0.00 0.00 0.00 35 1006.7
20260504201804 76 340 4.0 4.0 0.00 0.00 0.00 34 1007.0
20260504201301 76 345 9.0 10.0 0.00 0.00 0.00 34 1006.8
20260504200759 75 161 1.0 2.0 0.00 0.00 0.00 36 1007.0
20260504200255 75 10 9.0 11.0 0.00 0.00 0.00 33 1007.0
20260504195752 74 291 7.0 8.0 0.00 0.00 0.00 36 1007.0
20260504195247 74 310 11.0 11.0 0.00 0.00 0.00 37 1007.0
20260504194745 75 345 7.0 8.0 0.00 0.00 0.00 36 1007.3
20260504194241 75 294 10.0 11.0 0.00 0.00 0.00 38 1007.2
20260504193737 74 318 7.0 8.0 0.00 0.00 0.00 38 1007.2
20260504193235 73 341 6.0 7.0 0.00 0.00 0.00 36 1007.3
20260504192733 74 285 10.0 11.0 0.00 0.00 0.00 37 1007.3
20260504192231 73 294 12.0 14.0 0.00 0.00 0.00 36 1007.3
20260504191729 73 18 10.0 14.0 0.00 0.00 0.00 37 1007.6
20260504191226 73 340 6.0 11.0 0.00 0.00 0.00 38 1007.7
20260504190721 72 349 5.0 7.0 0.00 0.00 0.00 37 1007.6
20260504190219 72 288 8.0 9.0 0.00 0.00 0.00 37 1007.8
20260504185715 73 295 12.0 13.0 0.00 0.00 0.00 38 1007.7
20260504185211 72 291 9.0 10.0 0.00 0.00 0.00 39 1007.8
20260504184707 72 307 9.0 10.0 0.00 0.00 0.00 40 1007.9
20260504184202 71 269 3.0 3.0 0.00 0.00 0.00 39 1007.9
20260504183700 71 301 10.0 11.0 0.00 0.00 0.00 38 1007.9
20260504183156 72 296 8.0 9.0 0.00 0.00 0.00 39 1008.1
20260504182654 71 299 7.0 8.0 0.00 0.00 0.00 39 1008.3
20260504182151 71 312 11.0 11.0 0.00 0.00 0.00 39 1008.2
20260504181649 71 348 4.0 4.0 0.00 0.00 0.00 38 1008.5
20260504181146 71 308 5.0 6.0 0.00 0.00 0.00 39 1008.3
20260504180645 70 322 4.0 4.0 0.00 0.00 0.00 39 1008.4
20260504180143 69 312 6.0 7.0 0.00 0.00 0.00 39 1008.3
20260504175640 69 355 6.0 7.0 0.00 0.00 0.00 39 1008.3
20260504175137 70 317 8.0 11.0 0.00 0.00 0.00 40 1008.4
20260504174636 69 336 4.0 6.0 0.00 0.00 0.00 40 1008.5
20260504174131 69 337 5.0 6.0 0.00 0.00 0.00 42 1008.5